Weather in Kryuchkovka

Russia / Orenburg Oblast     51°33′58″N   55°56′11″E
temp.,
°C
wind,
m/s
gust,
m/s
humid.,
%
clouds,
%
prec.,
mm/h
press.,
hPa
HPBL,
m
26 february, fri
fri2623:00−25sse339481 0.0 103370
02:00−23sse3791100 0.0 1031273
05:00−21sse4798100 0.5 1029304
08:00−21se5897100 0.2 1027255
11:00−18se6994100 0.4 1025459
14:00−15se6992100 0.3 1024568
17:00−14se5893100 0.5 1022575
20:00−15ese599483 0.1 1022232
27 february, sat
sat2723:00−16se5109372 0.1 1020217
02:00−15se6119388 0.0 1018337
05:00−13se7139294 0.1 1014401
08:00−11sse81494100 2.8 1009501
11:00−6s71294100 6.6 1006626
14:00−2s51096100 1.0 1004372
17:00+1wsw410100100 1.7 1003411
20:00+1sw4993100 0.1 1003435
28 february, sun
sun2823:000sw5997100 0.2 1003430
02:000sw5998100 0.2 1002522
05:00−1wsw3795100 0.4 1002339
08:00−2sw3696100 0.4 1001115
11:00−1sw4893100 0.6 1002445
14:000sw5899100 0.3 1002574
17:00−4wsw5989100 1.3 1003620
20:00−10wsw5992100 0.1 1006322
1 march, mon
mon123:00−12wsw479497 0.2 1009182
02:00−13sw3795100 0.1 1011151
05:00−14wsw359599 0.1 1013111
08:00−14wsw359698 0.2 1015120
11:00−12wsw349395 0.3 1016242
14:00−10w338993 0.1 1018389
17:00−10w349296 0.1 1019386
20:00−13nw3496100 0.1 102187
2 march, tue
tue223:00−18nw349293 0.1 102365
02:00−22nw34960 0.0 102360
05:00−24wnw34982 0.0 102337
08:00−24wnw339854 0.0 102437
11:00−20w239555 0.0 1024156
14:00−16wsw348760 0.0 1023309
17:00−16sw369132 0.0 1022284
20:00−20ssw34964 0.0 102151